Soldotna, AK

2:36 PM AKST on February 25, 2017 (GMT -0900)
Soldotna

Weather History for PASX - May, 2013

Change the Weather History Date:

Thursday, May 9, 2013

  Actual Average Record
Temperature  
Mean Temperature 40 °F -  
Max Temperature 51 °F 50 °F 66 °F (2005)
Min Temperature 28 °F 33 °F 19 °F (1964)
Degree Days  
Heating Degree Days 26    
Moisture  
Dew Point 27 °F    
Average Humidity 60    
Maximum Humidity 80    
Minimum Humidity 40    
Precipitation  
Precipitation 0.00 in - - ()
Sea Level Pressure  
Sea Level Pressure 30.25 in    
Wind  
Wind Speed 2 mph (NNE)    
Max Wind Speed 9 mph    
Max Gust Speed -    
Visibility 10 miles    
Events      
Averages and records for this station are not official NWS values.
T = Trace of Precipitation, MM = Missing Value Source: NWS Daily Summary

Daily Weather History Graph

Daily Weather History Graph

Search for Another Location

Airport or City:

Trip Planner

Search our weather history database for the weather conditions in past years. The results will help you decide how hot, cold, wet, or windy it might be!

Date:

Astronomy

May. 09, 2013 Rise Set
Actual Time 5:36 AM AKDT 10:26 PM AKDT
Civil Twilight 4:36 AM AKDT 11:27 PM AKDT
Nautical Twilight 2:16 AM AKDT 1:28 AM AKDT
Astronomical Twilight Sun does not rise Sun does not rise
Moon 5:36 AM AKDT (5/9) 10:30 PM AKDT (5/9)
Length of Visible Light 18h 51m
Length of Day
16h 49m
Waning Crescent, 0% of the Moon is Illuminated
May 9
Waning Crescent
May 9
New
May 17
First Quarter
May 24
Full
May 31
Last Quarter

Hourly Weather History & Observations

Time (AKDT) Temp. Windchill Dew Point Humidity Pressure Visibility Wind Dir Wind Speed Gust Speed Precip Events Conditions
12:16 AM 39.2 °F - 24.8 °F 56% 30.23 in 10.0 mi Calm Calm - N/A   Clear
12:36 AM 39.2 °F - 24.8 °F 56% 30.23 in 10.0 mi Calm Calm - N/A   Clear
12:56 AM 37.4 °F - 24.8 °F 60% 30.23 in 10.0 mi Calm Calm - N/A   Clear
1:16 AM 37.4 °F - 24.8 °F 60% 30.23 in 10.0 mi Calm Calm - N/A   Clear
1:36 AM 35.6 °F - 24.8 °F 65% 30.24 in 10.0 mi Calm Calm - N/A   Clear
1:56 AM 37.4 °F - 24.8 °F 60% 30.24 in 10.0 mi Calm Calm - N/A   Clear
2:16 AM 33.8 °F - 24.8 °F 70% 30.24 in 10.0 mi Calm Calm - N/A   Clear
2:36 AM 32.0 °F - 23.0 °F 69% 30.24 in 10.0 mi Calm Calm - N/A   Clear
2:56 AM 32.0 °F - 21.2 °F 64% 30.24 in 10.0 mi Calm Calm - N/A   Clear
3:16 AM 30.2 °F - 21.2 °F 69% 30.24 in 10.0 mi Calm Calm - N/A   Clear
3:36 AM 30.2 °F - 21.2 °F 69% 30.24 in 10.0 mi Calm Calm - N/A   Clear
3:56 AM 30.2 °F - 21.2 °F 69% 30.24 in 10.0 mi Calm Calm - N/A   Clear
4:16 AM 30.2 °F - 23.0 °F 75% 30.24 in 10.0 mi Calm Calm - N/A   Clear
4:36 AM 28.4 °F - 21.2 °F 74% 30.24 in 10.0 mi Calm Calm - N/A   Clear
4:56 AM 28.4 °F - 23.0 °F 80% 30.24 in 10.0 mi Calm Calm - N/A   Clear
5:16 AM 28.4 °F - 21.2 °F 74% 30.24 in 10.0 mi Calm Calm - N/A   Clear
5:36 AM 28.4 °F - 23.0 °F 80% 30.25 in 10.0 mi Calm Calm - N/A   Clear
5:56 AM 28.4 °F - 23.0 °F 80% 30.25 in 10.0 mi Calm Calm - N/A   Clear
6:16 AM 30.2 °F - 23.0 °F 75% 30.25 in 10.0 mi Calm Calm - N/A   Clear
6:36 AM 30.2 °F - 23.0 °F 75% 30.25 in 10.0 mi Calm Calm - N/A   Clear
6:56 AM 30.2 °F - 24.8 °F 80% 30.25 in 10.0 mi Calm Calm - N/A   Scattered Clouds
7:16 AM 32.0 °F - 24.8 °F 75% 30.25 in 10.0 mi Calm Calm - N/A   Scattered Clouds
7:36 AM 32.0 °F - 24.8 °F 75% 30.26 in 10.0 mi Calm Calm - N/A   Mostly Cloudy
7:56 AM 33.8 °F - 24.8 °F 70% 30.26 in 10.0 mi Calm Calm - N/A   Overcast
8:16 AM 33.8 °F - 26.6 °F 75% 30.26 in 10.0 mi Calm Calm - N/A   Overcast
8:36 AM 35.6 °F - 26.6 °F 70% 30.26 in 10.0 mi Calm Calm - N/A   Overcast
8:56 AM 35.6 °F - 26.6 °F 70% 30.26 in 10.0 mi Calm Calm - N/A   Overcast
9:16 AM 35.6 °F 31.7 °F 26.6 °F 70% 30.27 in 10.0 mi SE 4.6 mph - N/A   Overcast
9:36 AM 37.4 °F 32.1 °F 26.6 °F 65% 30.27 in 10.0 mi SE 6.9 mph - N/A   Overcast
9:56 AM 37.4 °F 32.8 °F 26.6 °F 65% 30.27 in 10.0 mi East 5.8 mph - N/A   Overcast
10:16 AM 39.2 °F 35.0 °F 26.6 °F 61% 30.27 in 10.0 mi East 5.8 mph - N/A   Overcast
10:36 AM 39.2 °F 34.2 °F 26.6 °F 61% 30.27 in 10.0 mi ESE 6.9 mph - N/A   Overcast
10:56 AM 41.0 °F 38.0 °F 26.6 °F 57% 30.27 in 10.0 mi ENE 4.6 mph - N/A   Overcast
11:16 AM 42.8 °F 40.1 °F 26.6 °F 53% 30.27 in 10.0 mi East 4.6 mph - N/A   Overcast
11:36 AM 44.6 °F 41.4 °F 28.4 °F 53% 30.28 in 10.0 mi ESE 5.8 mph - N/A   Overcast
11:56 AM 44.6 °F 40.2 °F 28.4 °F 53% 30.28 in 10.0 mi ESE 8.1 mph - N/A   Overcast
12:16 PM 44.6 °F 42.2 °F 28.4 °F 53% 30.28 in 10.0 mi East 4.6 mph - N/A   Overcast
12:36 PM 44.6 °F 40.7 °F 28.4 °F 53% 30.28 in 10.0 mi ENE 6.9 mph - N/A   Overcast
12:56 PM 46.4 °F 43.5 °F 28.4 °F 50% 30.28 in 10.0 mi NE 5.8 mph - N/A   Overcast
1:16 PM 46.4 °F 44.3 °F 30.2 °F 53% 30.28 in 10.0 mi North 4.6 mph - N/A   Overcast
1:36 PM 46.4 °F 45.2 °F 30.2 °F 53% 30.28 in 10.0 mi NE 3.5 mph - N/A   Overcast
1:56 PM 46.4 °F 43.5 °F 32.0 °F 57% 30.28 in 10.0 mi NNE 5.8 mph - N/A   Overcast
2:16 PM 46.4 °F 45.2 °F 30.2 °F 53% 30.28 in 10.0 mi North 3.5 mph - N/A   Overcast
2:36 PM 48.2 °F - 32.0 °F 54% 30.27 in 10.0 mi ENE 3.5 mph - N/A   Overcast
2:56 PM 48.2 °F - 32.0 °F 54% 30.28 in 10.0 mi NNW 4.6 mph - N/A   Overcast
3:16 PM 50.0 °F - 33.8 °F 54% 30.27 in 10.0 mi NNE 4.6 mph - N/A   Overcast
3:36 PM 50.0 °F - 33.8 °F 54% 30.26 in 10.0 mi NE 5.8 mph - N/A   Overcast
3:56 PM 51.8 °F - 33.8 °F 50% 30.26 in 10.0 mi North 4.6 mph - N/A   Overcast
4:16 PM 51.8 °F - 33.8 °F 50% 30.26 in 10.0 mi Calm Calm - N/A   Overcast
4:36 PM 51.8 °F - 33.8 °F 50% 30.25 in 10.0 mi NNW 5.8 mph - N/A   Overcast
4:56 PM 51.8 °F - 33.8 °F 50% 30.25 in 10.0 mi NNW 4.6 mph - N/A   Overcast
5:16 PM 51.8 °F - 30.2 °F 44% 30.25 in 10.0 mi NW 9.2 mph - N/A   Overcast
5:56 PM 51.8 °F - 28.4 °F 41% 30.25 in 10.0 mi NW 6.9 mph - N/A   Overcast
6:16 PM 51.8 °F - 28.4 °F 41% 30.25 in 10.0 mi NNW 9.2 mph - N/A   Overcast
6:36 PM 51.8 °F - 28.4 °F 41% 30.25 in 10.0 mi NW 5.8 mph - N/A   Overcast
6:56 PM 50.0 °F - 26.6 °F 40% 30.24 in 10.0 mi NNW 6.9 mph - N/A   Overcast
7:16 PM 50.0 °F - 28.4 °F 43% 30.24 in 10.0 mi NNW 6.9 mph - N/A   Overcast
7:56 PM 50.0 °F - 30.2 °F 47% 30.23 in 10.0 mi North 5.8 mph - N/A   Overcast
8:16 PM 48.2 °F - 32.0 °F 54% 30.23 in 10.0 mi North 5.8 mph - N/A   Overcast
8:36 PM 48.2 °F - 32.0 °F 54% 30.23 in 10.0 mi North 5.8 mph - N/A   Overcast
8:56 PM 48.2 °F - 32.0 °F 54% 30.23 in 10.0 mi NNE 4.6 mph - N/A   Overcast
9:16 PM 48.2 °F - 32.0 °F 54% 30.23 in 10.0 mi NNE 5.8 mph - N/A   Overcast
9:36 PM 48.2 °F - 30.2 °F 50% 30.23 in 10.0 mi Calm Calm - N/A   Overcast
9:56 PM 46.4 °F - 30.2 °F 53% 30.23 in 10.0 mi Calm Calm - N/A   Overcast
10:16 PM 46.4 °F 45.2 °F 30.2 °F 53% 30.23 in 10.0 mi North 3.5 mph - N/A   Scattered Clouds
10:36 PM 44.6 °F - 30.2 °F 57% 30.23 in 10.0 mi Calm Calm - N/A   Scattered Clouds
10:56 PM 44.6 °F - 30.2 °F 57% 30.23 in 10.0 mi Calm Calm - N/A   Partly Cloudy
11:16 PM 39.2 °F - 28.4 °F 65% 30.23 in 10.0 mi Calm Calm - N/A   Clear
11:36 PM 39.2 °F - 28.4 °F 65% 30.23 in 10.0 mi Calm Calm - N/A   Partly Cloudy
11:56 PM 37.4 °F - 28.4 °F 70% 30.23 in 10.0 mi Calm Calm - N/A   Scattered Clouds